Wind_Speed
10 13 8 6 4 3 9 4 6 5 5 6 7 8 5 3 4 4 5 7 6 4 3 1 4 3 4 1 1 1 3 4 6 5 5 6 6 7 7 7 7 7 8 8 9 9 9 8 10
10 9 6 4 3 8 7 8 7 3 9 7 6 8 6 8 6 7 7 7 7 6 3 2 5 3 3 2 2 2 3 5 6 5 5 5 6 6 6 5 6 6 7 8 8 7 7 8 9
4 5 1 3 5 8 6 6 6 8 10 7 9 9 7 10 8 7 6 7 8 7 5 2 2 1 1 3 2 3 4 6 6 5 6 5 6 6 5 5 5 5 6 7 7 6 6 7 8
2 7 6 7 7 6 6 6 8 12 12 7 8 8 12 11 11 8 7 7 10 9 7 5 1 0 0 2 2 3 5 7 5 4 5 5 5 4 3 3 4 5 6 6 6 5 5 5 6
5 3 4 8 9 9 11 12 14 7 7 11 8 7 13 12 12 9 7 7 11 10 10 8 4 2 0 2 3 4 5 5 4 4 3 3 4 2 2 2 2 3 4 4 4 3 3 4 5
4 3 5 9 10 6 8 10 16 15 7 13 12 11 15 12 13 9 8 7 11 11 12 10 6 4 3 2 3 4 4 5 5 4 3 3 3 2 2 1 1 2 3 3 2 1 1 3 4
11 6 10 10 12 13 12 16 16 14 6 11 14 10 14 13 12 10 8 8 11 12 13 12 8 6 6 4 4 4 5 6 5 5 4 5 5 4 3 2 2 2 3 2 2 1 2 3 5
11 13 11 9 11 12 13 16 17 12 8 13 15 6 12 10 12 11 9 9 10 14 13 13 11 8 8 7 7 4 5 7 7 6 5 5 6 5 3 3 3 3 4 4 4 3 4 4 5
15 14 11 9 10 10 11 14 13 10 9 13 13 14 15 14 14 12 10 10 11 13 16 15 13 12 10 9 9 8 7 6 8 8 8 7 7 6 5 5 4 4 5 5 5 5 5 6 7
19 17 13 10 16 15 10 12 8 15 13 12 14 15 17 15 15 14 11 11 11 12 16 19 17 15 14 12 12 12 10 9 9 9 9 9 9 8 8 7 7 7 7 7 7 7 7 8 9
16 21 18 12 17 25 26 23 15 13 13 10 11 13 18 15 15 14 13 12 13 14 15 19 20 20 17 16 15 15 15 13 11 10 10 11 11 11 10 10 10 9 8 8 8 9 10 11 10
21 20 19 20 20 27 21 21 26 20 14 15 18 19 25 16 17 16 16 14 14 15 15 17 22 22 21 20 19 18 17 17 15 14 12 13 13 13 13 13 12 11 10 10 10 11 11 12 13
21 27 22 16 27 32 27 27 28 28 26 16 20 17 23 20 20 19 19 17 15 14 15 15 20 25 25 24 22 23 21 20 20 18 16 16 15 15 16 16 15 14 13 13 13 13 13 14 14
18 22 25 22 29 29 29 29 28 28 27 24 21 19 21 23 20 21 21 19 16 15 16 17 18 21 26 27 27 26 26 24 24 22 20 20 19 18 17 18 18 17 17 17 17 17 16 16 16
27 31 26 22 25 26 27 35 33 27 28 28 29 25 21 23 22 20 21 19 18 17 18 17 17 18 23 26 28 29 29 29 27 27 25 24 22 21 21 19 19 20 21 21 21 20 20 20 19
24 23 26 28 23 23 26 39 30 16 21 28 25 26 23 23 23 23 22 22 20 18 17 19 19 18 19 22 24 29 30 31 30 30 30 29 26 25 24 23 22 22 22 24 24 24 23 23 23
21 21 20 22 17 22 24 36 25 12 22 30 30 24 25 22 26 29 26 27 26 22 23 23 23 21 21 22 23 24 27 29 31 32 32 32 30 29 28 27 26 26 25 24 26 26 26 26 26
25 21 23 26 17 22 25 33 29 28 26 31 34 29 29 28 27 29 33 28 31 31 32 35 31 29 27 23 26 25 25 26 28 30 32 33 33 32 32 31 30 30 28 26 27 27 28 28 28
27 22 23 23 20 25 23 30 32 32 28 30 29 32 32 30 29 33 37 36 31 31 35 35 33 28 26 26 27 28 27 27 26 27 27 30 32 32 35 35 33 33 31 29 29 29 29 28 29
28 30 34 24 21 25 27 35 32 33 34 38 39 39 37 35 30 29 32 33 34 26 27 28 30 31 25 30 28 29 30 32 31 29 29 29 29 31 34 36 36 35 34 33 31 31 30 29 30
33 34 36 27 21 24 24 38 38 37 33 34 37 34 34 35 32 29 30 29 33 30 24 26 26 31 33 33 32 32 34 34 36 32 30 27 26 28 30 33 36 36 36 36 34 33 32 30 31
34 35 30 25 23 19 11 22 30 27 28 24 16 21 23 24 26 26 28 29 32 37 31 30 32 34 34 35 36 36 33 35 33 33 33 32 29 28 30 30 32 35 37 37 37 35 35 34 33
41 29 26 29 29 25 30 16 44 25 31 20 24 28 25 22 17 20 27 28 29 31 34 35 32 33 35 37 40 42 41 36 32 32 36 38 35 31 31 33 33 34 37 38 39 38 37 37 37
30 27 26 28 26 13 51 20 49 41 34 21 20 20 10 9 16 20 16 19 24 29 30 33 34 34 34 37 40 43 42 38 35 34 35 38 38 37 34 35 35 34 34 36 37 38 40 39 40
26 22 9 10 9 12 19 19 44 10 8 17 14 16 15 18 17 15 20 20 20 22 26 29 31 32 34 37 38 39 40 40 39 36 37 37 39 40 38 35 36 36 33 33 35 38 40 40 41
35 37 13 5 5 8 16 18 26 10 11 15 25 21 25 20 25 22 18 12 10 12 16 21 28 33 33 34 37 36 37 39 39 38 40 41 41 40 38 39 37 37 38 38 39 40 39 39 41
22 40 36 14 4 2 9 15 22 20 20 22 20 20 25 30 14 9 8 6 8 10 12 15 17 23 29 32 33 37 35 35 37 37 39 41 42 42 43 44 43 41 42 42 42 45 45 43 42
28 27 11 5 5 3 6 12 11 8 9 10 12 13 9 9 9 7 9 13 15 18 18 18 18 20 23 26 28 32 36 38 36 36 36 39 39 41 43 45 45 43 44 45 46 48 47 48 47
29 19 17 4 5 1 1 3 6 10 10 8 5 9 8 3 4 8 14 18 20 23 25 28 30 31 29 27 27 31 35 36 38 38 37 37 38 38 39 41 44 43 43 44 46 48 48 50 51
26 25 19 10 7 12 3 7 7 4 11 7 8 9 10 10 14 21 21 26 29 28 29 30 29 29 28 27 27 30 33 35 37 36 35 36 37 35 34 34 34 36 38 40 41 42 44 45 48
Wind_Direction
294 272 290 336 11 290 317 65 338 345 344 349 349 5 359 285 307 295 307 305 241 226 241 292 318 288 273 305 248 169 128 125 124 121 107 105 106 109 106 103 101 102 111 112 108 105 95 81 68
317 298 277 318 324 309 37 10 33 281 329 318 336 356 22 295 317 281 288 292 244 222 221 281 320 283 261 222 204 135 139 144 139 138 127 125 122 118 114 113 112 122 120 117 113 105 90 74 62
313 3 217 232 254 275 359 3 333 306 336 322 331 342 352 324 330 308 286 280 235 232 200 267 318 302 242 212 182 159 154 158 155 154 142 140 139 135 131 127 123 123 125 127 122 107 86 69 59
325 33 14 241 250 261 279 308 318 343 338 321 328 332 334 324 325 322 289 272 223 230 209 216 256 339 191 241 183 192 171 172 166 163 155 150 153 146 137 130 140 138 139 138 128 108 83 64 52
289 39 273 249 256 261 272 293 296 291 318 310 320 312 315 322 318 315 284 265 218 228 209 210 206 263 101 264 237 209 189 177 178 179 175 166 162 148 136 138 120 139 153 151 136 117 82 54 38
262 332 260 274 272 270 255 265 267 279 288 271 299 302 303 316 314 306 278 261 227 227 211 215 206 229 252 270 258 239 192 190 196 200 198 192 181 181 189 166 124 176 182 174 160 130 46 31 21
240 213 252 281 290 281 284 267 271 275 242 274 278 281 289 304 316 302 273 261 239 235 219 223 218 221 234 243 259 239 207 211 211 206 210 210 197 206 215 214 231 218 225 220 224 263 325 345 359
247 238 246 251 283 298 281 273 281 265 243 244 273 241 266 310 312 308 282 260 247 236 231 231 226 223 226 232 248 245 223 216 218 220 219 245 227 221 237 244 249 241 244 251 259 289 314 327 331
245 246 250 258 282 289 302 287 297 291 265 257 265 252 274 292 301 304 287 265 253 243 240 237 233 236 230 228 240 244 244 248 241 235 225 225 236 239 238 245 252 256 245 254 269 283 294 302 308
245 246 242 247 271 259 242 290 287 295 294 271 266 262 271 279 289 295 288 274 263 246 237 239 243 237 242 235 240 247 247 250 258 259 258 247 241 239 241 249 251 257 259 260 266 274 282 285 287
250 252 245 244 274 261 255 278 296 283 284 269 250 274 267 257 278 287 283 281 270 257 244 236 240 243 241 246 242 247 251 253 256 259 263 264 257 254 250 253 256 261 271 278 277 273 273 275 281
253 245 240 240 257 259 262 273 275 280 277 254 257 253 271 268 270 273 274 278 274 265 254 245 239 236 240 243 247 247 252 257 260 263 260 263 262 262 258 258 260 265 266 267 272 273 275 278 279
246 255 245 250 255 262 268 267 274 271 273 261 260 260 267 271 266 265 271 274 271 273 265 258 251 243 240 246 247 249 251 253 258 263 265 261 264 263 263 261 259 258 261 263 266 270 275 277 281
248 252 251 243 257 263 268 266 266 267 275 277 267 268 266 273 267 264 269 273 263 267 271 266 260 255 247 245 248 252 253 253 256 258 262 267 266 265 266 268 268 266 265 266 267 268 268 271 275
239 245 253 249 260 268 270 267 263 273 277 278 273 272 271 272 269 265 265 265 258 263 270 273 273 268 260 253 251 251 254 257 256 260 260 260 262 265 266 267 270 270 268 265 264 266 269 272 274
242 257 266 255 262 273 273 270 269 264 279 279 274 262 270 275 267 264 266 264 259 263 272 278 275 272 271 268 262 258 254 255 257 258 261 262 263 264 264 266 266 267 270 269 267 266 268 272 276
242 250 252 273 262 246 255 272 268 265 256 272 276 267 258 261 276 272 259 263 262 263 276 279 276 277 274 273 270 265 262 259 257 257 258 261 263 265 267 268 268 268 270 273 273 272 272 274 276
231 243 255 255 251 250 245 264 278 268 260 262 270 269 262 248 244 262 271 261 263 267 270 278 279 276 274 270 274 273 271 268 267 265 262 260 260 261 264 266 268 270 272 273 276 275 275 276 278
234 246 251 255 266 254 264 266 271 273 265 267 269 274 267 265 266 260 262 275 275 272 272 270 277 277 272 275 274 277 278 275 272 270 267 264 263 260 262 263 263 265 268 269 270 272 275 279 281
234 243 249 256 270 269 265 269 272 264 260 267 270 271 279 279 271 269 271 274 279 274 272 264 266 274 267 278 282 279 277 276 273 269 268 269 267 264 261 261 262 264 265 266 268 270 273 276 279
233 239 246 254 267 268 277 279 277 278 280 276 278 279 273 274 273 268 270 270 272 274 265 263 258 259 262 264 266 271 274 273 271 274 275 275 273 271 270 266 262 261 263 265 266 268 271 273 274
236 235 241 246 261 260 264 285 277 268 261 256 273 278 277 284 270 264 262 261 259 270 265 256 255 255 259 261 264 263 271 275 274 271 272 271 269 270 272 271 267 264 264 264 264 266 269 271 274
241 241 242 246 247 259 252 260 268 282 280 281 268 268 279 268 261 255 253 261 260 259 265 268 258 255 256 252 260 265 272 274 269 268 269 264 268 270 274 274 272 269 267 268 267 266 267 270 271
245 246 236 240 241 238 250 225 272 271 280 293 280 264 247 240 252 255 253 259 257 259 260 262 265 263 259 258 261 264 271 270 265 262 263 265 266 267 271 269 270 271 272 271 272 271 268 270 272
227 216 228 209 190 235 246 205 248 240 246 264 256 226 229 241 251 264 270 271 268 265 269 268 265 266 267 264 263 266 268 268 266 263 261 261 262 265 270 267 265 269 271 272 274 273 273 273 272
230 225 213 227 189 226 221 225 240 249 278 251 256 263 247 242 262 268 267 267 273 286 284 292 279 272 272 271 272 270 270 269 270 268 263 260 260 262 263 263 263 264 266 270 272 273 273 276 276
219 213 226 222 190 155 206 247 264 265 269 257 265 254 247 254 256 220 215 285 283 295 289 284 300 290 282 278 276 273 272 270 271 271 268 265 263 263 263 263 263 263 263 266 268 270 272 273 275
231 229 210 183 138 204 219 229 244 207 229 226 245 254 233 188 189 240 264 282 290 293 289 295 294 307 299 286 279 277 274 270 270 268 269 268 268 269 268 266 265 263 262 263 265 267 269 273 275
209 206 218 248 202 297 82 223 186 180 214 216 139 136 157 160 263 286 296 298 299 308 301 301 305 303 305 295 287 278 272 269 267 268 266 267 268 270 272 271 270 268 266 265 266 267 268 270 273
212 211 219 221 226 218 274 232 150 216 187 162 193 217 233 266 299 310 305 309 309 307 309 306 303 302 300 288 286 279 272 269 266 266 266 263 263 265 270 273 273 273 271 271 269 268 266 267 267
Height
3183 3184 3186 3187 3191 3188 3188 3189 3188 3189 3189 3188 3187 3187 3187 3185 3186 3188 3184 3182 3182 3185 3185 3185 3186 3185 3185 3183 3183 3183 3182 3183 3183 3183 3183 3183 3184 3184 3184 3185 3185 3185 3186 3187 3187 3187 3187 3187 3186
3182 3183 3185 3187 3190 3188 3189 3190 3189 3188 3189 3188 3188 3187 3187 3185 3185 3184 3184 3183 3183 3184 3185 3186 3185 3184 3184 3183 3183 3183 3184 3184 3184 3184 3184 3184 3184 3185 3185 3186 3186 3187 3187 3187 3188 3188 3188 3188 3187
3181 3181 3185 3187 3187 3188 3190 3189 3188 3188 3187 3188 3188 3187 3186 3185 3185 3184 3184 3182 3183 3183 3184 3186 3186 3185 3184 3184 3184 3184 3184 3184 3184 3184 3184 3185 3185 3185 3186 3186 3187 3187 3188 3188 3188 3188 3189 3189 3188
3181 3182 3185 3185 3186 3188 3189 3189 3188 3187 3187 3187 3188 3187 3187 3185 3184 3183 3183 3182 3182 3183 3184 3185 3186 3185 3185 3185 3185 3185 3185 3185 3185 3185 3185 3186 3186 3187 3187 3188 3188 3188 3189 3189 3189 3189 3190 3189 3190
3182 3183 3184 3185 3186 3187 3187 3188 3185 3187 3188 3186 3187 3188 3186 3185 3184 3183 3182 3182 3181 3182 3183 3184 3185 3186 3185 3185 3185 3185 3186 3186 3186 3186 3186 3186 3187 3188 3189 3189 3189 3189 3190 3190 3190 3190 3191 3191 3191
3182 3183 3184 3185 3185 3185 3185 3184 3183 3185 3186 3185 3185 3186 3185 3185 3183 3182 3181 3181 3181 3181 3183 3184 3184 3185 3185 3185 3185 3185 3186 3186 3187 3187 3187 3187 3188 3188 3189 3189 3190 3190 3190 3190 3191 3191 3192 3192 3191
3179 3180 3181 3182 3184 3184 3184 3182 3181 3183 3184 3183 3183 3185 3184 3184 3183 3181 3181 3180 3180 3181 3182 3184 3184 3184 3185 3185 3185 3185 3185 3186 3187 3187 3187 3188 3188 3188 3189 3189 3190 3190 3191 3191 3192 3192 3192 3192 3191
3178 3178 3178 3180 3183 3184 3181 3180 3179 3180 3182 3180 3181 3182 3181 3184 3182 3180 3180 3179 3179 3180 3181 3183 3184 3183 3184 3185 3185 3185 3185 3185 3186 3186 3187 3188 3188 3188 3189 3189 3190 3190 3190 3191 3191 3192 3192 3192 3191
3175 3176 3176 3179 3181 3181 3179 3180 3177 3179 3179 3180 3178 3179 3180 3182 3181 3180 3179 3178 3177 3178 3179 3180 3182 3183 3183 3183 3184 3184 3184 3185 3186 3186 3185 3186 3187 3188 3189 3189 3189 3189 3189 3190 3191 3191 3191 3191 3190
3172 3173 3174 3177 3177 3176 3176 3176 3177 3178 3178 3178 3177 3177 3178 3179 3179 3179 3178 3177 3176 3176 3176 3178 3180 3180 3182 3182 3182 3183 3183 3183 3184 3185 3185 3185 3186 3186 3187 3188 3187 3188 3188 3189 3189 3189 3189 3189 3188
3168 3169 3172 3173 3172 3171 3174 3175 3174 3174 3175 3177 3177 3173 3174 3176 3177 3177 3177 3175 3174 3174 3174 3175 3176 3178 3179 3180 3180 3182 3182 3182 3183 3183 3183 3184 3185 3185 3185 3186 3186 3186 3187 3187 3187 3187 3187 3187 3187
3164 3165 3166 3169 3166 3166 3170 3170 3170 3172 3172 3173 3174 3173 3171 3174 3174 3174 3174 3174 3173 3172 3172 3172 3173 3174 3176 3177 3178 3179 3180 3181 3182 3182 3182 3182 3183 3184 3184 3184 3185 3185 3185 3185 3185 3185 3185 3185 3185
3160 3160 3163 3164 3163 3162 3165 3165 3166 3166 3169 3169 3169 3171 3169 3170 3170 3171 3171 3172 3171 3170 3169 3169 3170 3170 3172 3173 3175 3176 3177 3177 3179 3179 3180 3180 3181 3181 3181 3182 3182 3182 3182 3183 3183 3183 3183 3183 3182
3157 3155 3157 3160 3158 3158 3159 3160 3160 3161 3164 3166 3166 3166 3167 3165 3166 3167 3168 3168 3169 3168 3167 3167 3167 3168 3168 3168 3170 3171 3173 3174 3174 3175 3177 3177 3178 3178 3178 3179 3180 3180 3180 3180 3180 3179 3179 3179 3179
3149 3150 3153 3154 3156 3155 3154 3152 3154 3159 3160 3160 3163 3161 3162 3161 3162 3163 3164 3164 3165 3165 3165 3164 3165 3165 3164 3165 3166 3166 3168 3169 3171 3171 3172 3173 3173 3174 3175 3175 3175 3176 3176 3175 3175 3176 3176 3176 3175
3146 3148 3148 3151 3152 3152 3152 3143 3152 3154 3154 3154 3156 3157 3157 3157 3158 3159 3160 3160 3161 3161 3162 3162 3161 3162 3161 3161 3162 3162 3162 3164 3165 3167 3167 3169 3170 3170 3170 3171 3171 3171 3172 3172 3171 3171 3172 3172 3172
3143 3143 3143 3145 3148 3150 3146 3142 3147 3150 3151 3150 3151 3152 3153 3155 3152 3153 3155 3156 3157 3157 3157 3159 3159 3159 3159 3158 3157 3158 3158 3158 3159 3160 3161 3163 3165 3165 3166 3167 3167 3167 3167 3168 3168 3168 3168 3168 3168
3139 3139 3140 3141 3146 3142 3142 3139 3142 3146 3145 3144 3145 3145 3146 3149 3150 3149 3147 3151 3152 3152 3152 3152 3154 3155 3155 3155 3154 3153 3153 3153 3154 3154 3155 3156 3158 3159 3159 3161 3162 3162 3163 3164 3164 3164 3163 3163 3163
3136 3136 3136 3138 3141 3138 3136 3134 3137 3140 3139 3139 3138 3138 3138 3141 3143 3146 3144 3143 3145 3145 3145 3146 3147 3149 3150 3150 3150 3149 3149 3149 3149 3148 3149 3150 3151 3153 3153 3153 3154 3155 3156 3158 3158 3158 3158 3158 3158
3131 3131 3129 3134 3135 3135 3134 3129 3130 3131 3131 3132 3132 3133 3133 3134 3135 3138 3138 3137 3135 3139 3138 3139 3140 3141 3143 3144 3146 3144 3143 3143 3144 3143 3143 3144 3145 3145 3146 3146 3148 3149 3150 3150 3151 3152 3152 3153 3152
3123 3125 3127 3131 3133 3129 3129 3122 3123 3124 3124 3126 3125 3125 3125 3126 3128 3129 3130 3131 3129 3129 3132 3132 3133 3135 3135 3137 3138 3137 3137 3136 3136 3139 3140 3140 3140 3139 3139 3140 3141 3142 3142 3143 3144 3145 3146 3146 3146
3117 3121 3125 3127 3129 3127 3130 3117 3114 3116 3117 3120 3117 3117 3118 3121 3121 3120 3122 3123 3124 3121 3123 3124 3125 3126 3127 3128 3128 3128 3129 3130 3132 3133 3133 3134 3134 3133 3133 3133 3134 3135 3135 3135 3137 3138 3139 3138 3139
3108 3118 3120 3123 3124 3125 3123 3126 3097 3107 3107 3112 3114 3116 3116 3115 3114 3112 3112 3113 3115 3116 3115 3114 3116 3118 3119 3120 3119 3120 3119 3121 3124 3126 3125 3126 3127 3128 3128 3127 3127 3127 3128 3129 3129 3131 3131 3131 3131
3110 3114 3116 3118 3120 3117 3101 3122 3094 3100 3102 3106 3108 3111 3111 3108 3107 3107 3108 3107 3107 3107 3108 3109 3108 3109 3111 3112 3112 3111 3112 3113 3113 3116 3115 3117 3119 3120 3122 3121 3121 3121 3121 3121 3122 3123 3123 3124 3123
3105 3107 3109 3109 3107 3103 3102 3112 3089 3096 3101 3104 3105 3108 3107 3102 3103 3103 3104 3102 3102 3101 3101 3102 3102 3103 3103 3103 3103 3104 3104 3104 3104 3106 3106 3107 3108 3109 3112 3113 3113 3114 3114 3114 3114 3114 3115 3116 3115
3097 3103 3100 3097 3096 3094 3100 3095 3090 3093 3096 3099 3101 3102 3101 3097 3097 3098 3099 3099 3098 3097 3096 3096 3095 3095 3096 3096 3096 3097 3096 3095 3095 3096 3097 3097 3098 3100 3102 3102 3104 3105 3106 3106 3105 3104 3105 3106 3106
3091 3092 3095 3091 3091 3089 3088 3086 3087 3090 3093 3093 3093 3093 3093 3091 3092 3094 3095 3096 3094 3093 3091 3090 3089 3088 3088 3087 3087 3087 3088 3088 3087 3088 3087 3087 3088 3089 3091 3091 3093 3095 3096 3097 3097 3094 3095 3096 3096
3084 3086 3088 3077 3081 3086 3081 3083 3085 3087 3088 3089 3088 3089 3090 3089 3090 3091 3090 3089 3088 3086 3085 3084 3083 3083 3081 3079 3078 3078 3078 3078 3079 3079 3079 3079 3080 3080 3080 3080 3081 3083 3085 3086 3086 3085 3086 3085 3086
3077 3078 3081 3078 3081 3080 3084 3083 3081 3082 3084 3085 3084 3088 3088 3087 3086 3086 3086 3085 3084 3082 3080 3079 3077 3076 3075 3073 3071 3070 3069 3069 3068 3068 3070 3071 3071 3072 3071 3071 3070 3072 3074 3075 3075 3075 3075 3075 3075
3066 3072 3075 3080 3080 3079 3080 3081 3081 3082 3083 3082 3084 3087 3086 3084 3082 3080 3081 3080 3078 3077 3075 3072 3071 3069 3066 3065 3063 3061 3060 3060 3059 3059 3059 3060 3060 3062 3062 3062 3061 3062 3062 3063 3063 3063 3063 3063 3064